This is the latest recevied weather packets stored in our database for station/object VR2R-13. If no packets are shown the sender has not sent any weather packets the latest 1 day(s).
| Time | Temp. | Humidity | Pressure | Rain* | Wind** | Luminosity | Snow |
|---|---|---|---|---|---|---|---|
| 1778013166 | 17.22° C | 98% | 913.4 hPa | 0 mm | 1.79 m/s, 80° | - | - |
| 1778012987 | 16.67° C | 98% | 913.4 hPa | 0 mm | 0.45 m/s, 126° | - | - |
| 1778012866 | 16.67° C | 97% | 913.4 hPa | 0 mm | 0.45 m/s, 87° | - | - |
| 1778012627 | 16.67° C | 97% | 913.3 hPa | 0 mm | 0.45 m/s, 64° | - | - |
| 1778012566 | 16.67° C | 97% | 913.4 hPa | 0 mm | 0.89 m/s, 63° | - | - |
| 1778012268 | 16.67° C | 98% | 913.4 hPa | 0 mm | 0.45 m/s, 120° | - | - |
| 1778012266 | 16.67° C | 98% | 913.4 hPa | 0 mm | 0.45 m/s, 118° | - | - |
| 1778011966 | 16.67° C | 97% | 913.4 hPa | 0 mm | 0 m/s | - | - |
| 1778011907 | 16.67° C | 98% | 913.4 hPa | 0 mm | 0.45 m/s, 52° | - | - |
| 1778011666 | 16.67° C | 97% | 913.4 hPa | 0 mm | 0.89 m/s, 78° | - | - |
| 1778011547 | 16.67° C | 97% | 913.4 hPa | 0 mm | 1.34 m/s, 105° | - | - |
| 1778011366 | 16.67° C | 98% | 913.4 hPa | 0 mm | 1.34 m/s, 125° | - | - |
| 1778011187 | 16.67° C | 98% | 913.3 hPa | 0 mm | 1.34 m/s, 75° | - | - |
| 1778011067 | 16.67° C | 98% | 913.3 hPa | 0 mm | 0.45 m/s, 64° | - | - |
| 1778010827 | 16.67° C | 97% | 913.3 hPa | 0 mm | 1.34 m/s, 85° | - | - |
| 1778010766 | 16.67° C | 98% | 913.3 hPa | 0 mm | 1.34 m/s, 82° | - | - |
| 1778010465 | 16.67° C | 98% | 913.3 hPa | 0 mm | 0.45 m/s, 96° | - | - |
| 1778010165 | 16.67° C | 97% | 913.3 hPa | 0 mm | 1.79 m/s, 84° | - | - |
| 1778010107 | 16.67° C | 97% | 913.3 hPa | 0 mm | 1.79 m/s, 90° | - | - |
| 1778009865 | 16.67° C | 97% | 913.3 hPa | 0 mm | 2.24 m/s, 83° | - | - |
| 1778009747 | 16.67° C | 97% | 913.3 hPa | 0 mm | 1.34 m/s, 82° | - | - |
| 1778009565 | 16.67° C | 97% | 913.3 hPa | 0 mm | 2.24 m/s, 100° | - | - |
| 1778009387 | 16.67° C | 98% | 913.3 hPa | 0 mm | 2.24 m/s, 95° | - | - |
| 1778009266 | 16.67° C | 97% | 913.2 hPa | 0 mm | 1.79 m/s, 77° | - | - |
| 1778009027 | 16.67° C | 97% | 913.2 hPa | 0 mm | 2.24 m/s, 74° | - | - |
* Rain latest hour (hover to see other rain measurements)
** Current wind speed in m/s (hover to see current wind gust speed)